Location: LDNL
(36.4545°S, 141.6685°E)
Time: 14:21:42
(UTC+11:00)

Courier 1B Rocket - Pass Details

Date: 05 February 2023
Orbit: 920 x 1202 km, 28.2° (Epoch: 25 March)

Event Time Altitude Azimuth Distance (km) Brightness Sun altitude
Rises 04:11:54 0° 321° (NW) 3,951 - -27.3°
Reaches altitude 10° 04:15:14 10° 334° (NNW) 3,037 - -26.9°
Exits shadow 04:20:46 24° 21° (NNE) 2,227 6.6 -26.1°
Maximum altitude 04:21:01 24° 24° (NNE) 2,227 6.6 -26.1°
Drops below altitude 10° 04:26:58 10° 74° (ENE) 3,136 7.9 -25.3°
Sets 04:30:28 0° 86° (E) 4,109 8.8 -24.8°
